sat.trackr.live / text

‹ back to catalog

STARLINK-4065

NORAD 52841 · 2022-062M

PAYLOAD ACTIVE UNKNOWN

§ Identity

Operator
Country
US
Launch date
2022-06-17
Launch site
AFETR
Launch vehicle
Mass (kg)
RCS (m²)

Purposes: comms

External: N2YO · Heavens-Above · Gunter

§ Orbital elements

Epoch: 2026-05-25T00:52:41.140992Z

Period
95.44 min
Inclination
53.2132°
Eccentricity
0.0001487
Mean motion
15.08844094 rev/d
Perigee alt
538.7 km
Apogee alt
540.8 km
Semi-major
6,917.9 km
B*
-2.4560e-5
RAAN
51.3837°
Arg perigee
80.0374°
Mean anomaly
280.0786°
Rev number
21,731

§ Raw data

STARLINK-40651 52841U 22062M   26145.03658728 -.00000679  00000+0 -24560-4 0  99932 52841  53.2132  51.3837 0001487  80.0374 280.0786 15.08844094217315

JSON: /api/v1/satellites/52841 · /tle

For live sub-satellite position, see the globe view (requires WebGL).

§ Visibility from observer

Set your observer location to see the next 7 days of passes ≥ 10°. The values pass through the URL so the page stays shareable.

No JS? Fill the form by hand. The geolocation button needs JavaScript.